THOR ABLESTAR DEB, 333

Orbit data source: Space-Track

THOR ABLESTAR DEB, 333 is space debris in LEO originally from a launch on Thu, 29 Jun 1961 UTC launched from the Air Force Eastern Test Range (AFETR). Debris objects in space refer to the collection of defunct objects orbiting the Earth. Examples of debris include non-operational satellites, rocket bodies, and fragments generated from explosions, collisions, or faulty payload assembly.

Loading next visibility...
Identifier
333, 1961-015DK
Orbit
LEO
Country
Flag of USUS
Related business
Manufacturer
Unknown
Mission
Spacecraft
Bus & Motor
Unknown
Mass
Unknown
Launch date (UTC)
1961-06-29 (64 years ago)
Launch vehicle
Unknown
Launch site
Air Force Eastern Test Range (AFETR)
Object type
Payload
Rocket body
Debris
Shape & HBR
Unknown shape, 0.1 m
Radar Cross Section
Small (<0.1 m²)

Expand to show TLE details & history
Last TLE update: 11 hours ago

TLE from 11 hours ago
0 THOR ABLESTAR DEB
1 00333U 61015DK  25351.24493988  .00007514  00000-0  94963-3 0  9996
2 00333  66.7013 304.0150 0029494  65.4618 294.9577 14.82084123361821
Epoch: 2025-12-17T05:52Z
TLE epoch observation values (Epoch: 2025-12-17T05:52:42.805Z)
Latitude
0.00006°
Longitude
129.7191°
Altitude
616.248 km
Speed
7.556 km/s
True Right ascension
20h 16m 03s
True Declination
0° 00' 00"
Sunlit
Object was in daylight at epoch
Visualization orbit readout
Latitude
Unknown
Longitude
Unknown
Altitude
Unknown
Speed
Unknown
Apparent Right ascension
Unknown
Apparent Declination
Unknown
Sunlit
N/A
Visualization observer readout
Local Sidereal Time
15:47:56
Azimuth
Unknown
Elevation
Unknown
Doppler factor
Unknown
Orbital elements
Apogee altitude
641.732 km
Perigee altitude
600.445 km
Semi-major axis
6,999.226 km
Eccentricity
0.00295
Inclination
66.7013°
RAAN
304.015°
Arg. of periapsis
65.4618°
True anomaly
294.65081°
Mean anomaly
294.9577°
Eccentric anomaly
294.8043°
Mean motion
3.70654 °/min
Orbital period
97.13 mins
BSTAR
0.00094963

Documentation

Showing up to 5 results
|